Vendredi 29 septembre 2023   -   semaine 39                    on fête: Gabriel                    soleil  (-3 mn) lever du soleil 07:41:00 coucher du soleil 19:32:00                    lune Lune gibbeuse croissante
Sélection

Sélection d'un SYNOP

   Synop:       

  Période à consulter:

Actuelle
Archive     

Relevé

Dernier relevé du SYNOP pour la période choisie

Conditions météo à la station de Vichy/Charmeil (4610N 00324E)    altitude 251m

Date du relevé29/09/2023 à 01:00
Base des nuagesplus de 2500m
Visibilité20km
Vent4 km/h SSO
Température17.5 C
Température mini / 12h0.0 C
Humidité88.1 %
Point de rosée15.5 C
Pression absolue989.8 hPa
Pression relative1019.1 hPa
Variation pression0.7 hPa en hausse puis stationnaire ou en hausse, puis en hausse plus lente

24h

Historique de la période choisie

Certaines stations ne diffusent pas en continu, d'où l'absence possible de données à certaines heures. Le tableau ci-dessous récapitule l'historique des relevés de la station de Vichy/Charmeil.

Date - Heure Base des nuages Visibilité Nébulosité Vent - Secteur Température Humidité Point rosée Pression / Géopotentiel Précipitations Temps
29/09 01:00 plus de 2500m 20km 4 km/h SSO 17.5 C 88.1 % 15.5 C 1019.1 hPa
29/09 00:00 plus de 2500m 20km 4 km/h SSO 16.3 C 96.2 % 15.7 C 1019.0 hPa
28/09 23:00 plus de 2500m 20km 2 km/h SO 16.6 C 93.8 % 15.6 C 1018.9 hPa
28/09 22:00 plus de 2500m 20km 2 km/h SO 17.9 C 89.8 % 16.2 C 1018.4 hPa
28/09 21:00 plus de 2500m 20km 4/8 2 km/h ONO 20.1 C 77.8 % 16.1 C 1017.8 hPa
28/09 20:00 plus de 2500m 20km 7/8 4 km/h N 23.2 C 66.9 % 16.7 C 1016.8 hPa 0 mm/12h
28/09 19:00 plus de 2500m 20km 4 km/h NNE 24.8 C 61.9 % 17.0 C 1016.4 hPa
28/09 18:00 plus de 2500m 20km 6 km/h ENE 26.5 C 56.0 % 17.0 C 1016.2 hPa
28/09 17:00 plus de 2500m 19km 6 km/h NNE 26.6 C 56.0 % 17.1 C 1016.6 hPa
28/09 16:00 plus de 2500m 20km 4 km/h ENE 26.9 C 52.0 % 16.2 C 1016.8 hPa
28/09 15:00 plus de 2500m 20km 4 km/h N 26.4 C 50.9 % 15.4 C 1017.3 hPa
28/09 14:00 plus de 2500m 20km 2 km/h E 25.6 C 51.0 % 14.7 C 1017.9 hPa 0 mm/6h
28/09 13:00 plus de 2500m 19km 2 km/h S 24.6 C 52.1 % 14.1 C 1018.9 hPa
28/09 12:00 plus de 2500m 20km 1/8 2 km/h NE 23.2 C 55.9 % 13.9 C 1019.3 hPa
28/09 11:00 plus de 2500m 20km 3/8 2 km/h SSO 21.7 C 67.0 % 15.3 C 1019.8 hPa
28/09 10:00 plus de 2500m 20km 2 km/h S 19.3 C 73.8 % 14.5 C 1020.0 hPa
28/09 09:00 plus de 2500m 20km 8/8 0 km/h N 15.6 C 87.9 % 13.6 C 1020.2 hPa
28/09 08:00 plus de 2500m 20km 8/8 0 km/h N 14.3 C 90.7 % 12.8 C 1020.2 hPa 0 mm/12h
28/09 07:00 plus de 2500m 20km 8/8 2 km/h NNO 14.7 C 87.8 % 12.7 C 1019.9 hPa
28/09 06:00 plus de 2500m 20km 8/8 4 km/h SSO 15.3 C 83.9 % 12.6 C 1019.4 hPa
28/09 05:00 plus de 2500m 20km 3/8 4 km/h SSO 14.6 C 90.1 % 13.0 C 1019.2 hPa
28/09 04:00 plus de 2500m 20km 8/8 4 km/h S 15.8 C 86.2 % 13.5 C 1018.9 hPa
28/09 03:00 plus de 2500m 20km 8/8 2 km/h SSO 15.8 C 87.9 % 13.8 C 1019.0 hPa
28/09 02:00 plus de 2500m 20km 7/8 2 km/h SSO 15.4 C 90.8 % 13.9 C 1018.5 hPa 0 mm/6h
28/09 01:00 plus de 2500m 20km 8/8 2 km/h SO 16.1 C 90.8 % 14.6 C 1018.3 hPa

Source: ogimet